Location: Broek
(53.2737°N, 5.9967°E)
Time: 22:35:18
(UTC+00:00)

ARIANE 6 FM1 Upper Stage - Pass Details

Date: 10 October 2024
Orbit: 559 x 596 km, 62.0° (Epoch: 10 November)

Event Time Altitude Azimuth Distance (km) Brightness Sun altitude
Rises 18:04:37 0° 295° (WNW) 2,812 7.7 -11.9°
Reaches altitude 10° 18:07:08 10° 308° (NW) 1,919 6.3 -12.3°
Maximum altitude 18:10:51 27° 7° (N) 1,167 4.3 -12.8°
Enters shadow 18:13:44 14° 58° (ENE) 1,673 4.6 -13.2°
